METEOR 2-11 DEB, 40708

Orbit data source: Space-Track

METEOR 2-11 DEB, 40708 is space debris in LEO originally from a launch on Thu, 05 Jul 1984 UTC launched from the Plesetsk Missile And Space Complex (PKMTR). Debris objects in space refer to the collection of defunct objects orbiting the Earth. Examples of debris include non-operational satellites, rocket bodies, and fragments generated from explosions, collisions, or faulty payload assembly.

Loading next visibility...
Identifier
40708, 1984-072K
Orbit
LEO
Last TLE update
1 week ago
Origin
Manufacturer
Unknown
Mission
Spacecraft
Bus & Motor
Unknown
Mass
Unknown
Launch date (UTC)
1984-07-05 (41 years ago)
Launch vehicle
Unknown
Launch site
Plesetsk Missile And Space Complex (PKMTR)
Object type
Payload
Rocket body
Debris
Shape & HBR
Unknown
Radar Cross Section
Small (<0.1 m²)

Expand to show TLE details & history

TLE from 1 week ago
0 METEOR 2-11 DEB
1 40708U 84072K   25118.93819656  .00003335  00000-0  24032-2 0  9991
2 40708  82.5150 343.1362 0024143  36.8862 323.3960 13.96370140516182
Epoch: 2025-04-28T22:31Z
Definitive object data (Epoch: 2025-04-28T22:31:00.182Z)
Latitude
Longitude
148.2404°
Altitude
895.204 km
Speed
7.412 km/s
True Right ascension
22h 52m 32s
True Declination
0° 00' 00"
Sunlit
Object was in daylight at TLE epoch
Visualization TLE readout
Latitude
-78.58987°
Longitude
0.21848°
Altitude
938.902 km
Speed
7.379 km/s
Apparent Right ascension
02h 09m 39s
Apparent Declination
-72° 42' 24"
Sunlit
Object is in daylight
Visualization observer readout
Local Sidereal Time
13:49:26
Azimuth
182.765° SSW
Elevation
-57.116°
Doppler factor
1
Orbital elements
Apogee altitude
921.108 km
Perigee altitude
885.948 km
Semi-major axis
7,281.665 km
Eccentricity
0.0024143
Inclination
82.515°
RAAN
343.1362°
Arg. of periapsis
36.8862°
True anomaly
323.23063°
Mean anomaly
323.396°
Eccentric anomaly
323.31336°
Mean motion
3.49299 °/min
BSTAR
0.0024032
Orbital period
103.06 mins
Loading maneuver chart data...
Loading SW <> Apogee altitude chart data...
Loading historical data...
Loading historical data...
Loading historical data...
Loading historical data...
Loading historical data...
Loading historical data...
Loading historical data...

METEOR 2-11 DEB Visibility forecast

Observer location: undefined°, undefined°

Span
Click to sort rows by Start time (UTC) header in descending order
Start Az.
Max El. time (UTC)
Max El. Az.
Max El.
End time (UTC)
End Az.
7 mins2025-05-09 13:09:43.629Z122.238° SE2025-05-09 13:12:43.629Z89.445° E17.271°2025-05-09 13:16:43.629Z44.242° NE
9 mins2025-05-09 14:52:43.629Z208.317° SW2025-05-09 14:56:43.629Z288.338° WNW39.857°2025-05-09 15:01:43.629Z357.877° N
4 mins2025-05-09 23:57:43.629Z49.924° ENE2025-05-09 23:59:43.629Z71.575° E13.087°2025-05-10 00:01:43.629Z91.997° ESE
10 mins2025-05-10 01:39:43.629Z349.883° N2025-05-10 01:43:43.629Z298.999° NW44.664°2025-05-10 01:49:43.629Z177.455° S
|